period_start,C,m1,H,J0,J1,J2,J3,J4,J5,JA,JB,JC,JD,JJ,JK,JN,#
2018-02-16 00:00:41,0.08,1.35,0.00,24.41,28.06,31.20,13.96,50.01,1022.00,2022.91,2899.18,2727.14,3092.96,599.56,595.91,11.38,0000 0000 0000 0000 000000
2018-02-16 00:05:43,0.10,1.36,0.00,24.38,28.05,31.20,14.02,50.13,1021.99,2022.96,2897.56,2726.06,3091.62,599.95,596.37,11.43,0000 0000 0000 0000 000000
2018-02-16 00:10:44,0.08,1.36,0.00,24.38,28.05,31.20,14.04,49.96,1021.99,2022.96,2895.95,2725.00,3090.29,600.35,596.56,11.48,0000 0000 0000 0000 000000
2018-02-16 00:15:46,0.09,1.37,0.00,24.38,28.05,31.17,13.96,50.04,1021.99,2022.98,2894.32,2723.93,3088.90,599.92,596.34,11.53,0000 0000 0000 0000 000000
2018-02-16 00:20:47,0.09,1.37,0.00,24.38,28.04,31.18,13.98,50.08,1021.99,2022.98,2892.64,2722.88,3087.61,600.01,596.40,11.58,0000 0000 0000 0000 000000
2018-02-16 00:25:48,0.08,1.37,0.00,24.37,28.02,31.16,14.00,50.08,1021.99,2022.99,2891.11,2721.88,3086.37,600.08,596.52,11.63,0000 0000 0000 0000 000000
2018-02-16 00:30:49,0.08,1.38,0.00,24.37,28.02,31.15,14.02,50.11,1021.99,2022.99,2889.57,2720.89,3085.05,600.20,596.63,11.68,0000 0000 0000 0000 000000
2018-02-16 00:35:51,0.09,1.38,0.00,24.38,28.02,31.15,14.01,50.12,1021.99,2022.99,2887.92,2719.85,3083.68,599.75,596.32,11.73,0000 0000 0000 0000 000000
2018-02-16 00:40:52,0.09,1.39,0.00,24.37,28.01,31.13,13.96,50.07,1021.99,2022.99,2886.36,2718.75,3082.41,600.20,596.74,11.78,0000 0000 0000 0000 000000
2018-02-16 00:45:53,0.07,1.39,0.00,24.37,28.00,31.13,13.96,50.01,1021.98,2022.99,2884.75,2717.76,3081.11,599.95,596.37,11.83,0000 0000 0000 0000 000000
2018-02-16 00:50:54,0.09,1.40,0.00,24.36,28.00,31.13,14.00,50.12,1021.96,2022.99,2883.24,2716.71,3079.76,599.76,596.20,11.88,0000 0000 0000 0000 000000
2018-02-16 00:55:55,0.08,1.40,0.00,24.35,28.00,31.13,14.01,50.13,1021.98,2022.99,2881.68,2715.74,3078.55,599.79,596.20,11.93,0000 0000 0000 0000 000000
2018-02-16 01:00:57,0.07,1.40,0.00,24.36,27.98,31.11,14.00,50.08,1021.95,2022.99,2880.11,2714.72,3077.16,600.00,596.37,11.98,0000 0000 0000 0000 000000
2018-02-16 01:05:58,0.09,1.41,0.00,24.34,27.97,31.11,13.95,49.98,1021.98,2022.99,2878.69,2713.65,3075.80,600.02,596.49,12.03,0000 0000 0000 0000 000000
2018-02-16 01:10:59,0.08,1.41,0.00,24.32,27.97,31.09,13.99,50.01,1021.99,2022.99,2877.18,2712.66,3074.56,600.11,596.64,12.08,0000 0000 0000 0000 000000
2018-02-16 01:16:01,0.07,1.42,0.00,24.33,27.97,31.09,14.03,49.98,1021.99,2023.00,2875.68,2711.75,3073.36,599.97,596.45,12.13,0000 0000 0000 0000 000000
2018-02-16 01:21:02,0.08,1.42,0.00,24.33,27.97,31.10,13.98,49.94,1021.99,2023.00,2874.15,2710.73,3072.03,600.09,596.60,12.18,0000 0000 0000 0000 000000
2018-02-16 01:26:03,0.08,1.43,0.00,24.33,27.95,31.09,13.97,50.10,1021.99,2023.00,2872.61,2709.69,3070.80,599.82,596.32,12.23,0000 0000 0000 0000 000000
2018-02-16 01:31:04,0.08,1.43,0.00,24.32,27.95,31.08,14.01,50.07,1021.99,2023.00,2871.02,2708.63,3069.52,600.03,596.56,12.28,0000 0000 0000 0000 000000
2018-02-16 01:36:06,0.09,1.43,0.00,24.30,27.95,31.06,14.05,50.03,1021.99,2023.00,2869.37,2707.50,3068.07,599.95,596.51,12.33,0000 0000 0000 0000 000000
2018-02-16 01:41:07,0.09,1.44,0.00,24.32,27.95,31.06,14.09,50.04,1022.00,2023.00,2867.74,2706.45,3066.70,600.37,596.89,12.38,0000 0000 0000 0000 000000
2018-02-16 01:46:08,0.08,1.44,0.00,24.31,27.94,31.07,14.00,50.08,1021.99,2023.01,2866.12,2705.38,3065.37,599.58,596.07,12.44,0000 0000 0000 0000 000000
2018-02-16 01:51:09,0.09,1.45,0.00,24.32,27.92,31.08,13.97,49.99,1021.99,2023.00,2864.48,2704.36,3064.00,599.82,596.34,12.49,0000 0000 0000 0000 000000
2018-02-16 01:56:10,0.09,1.45,0.00,24.31,27.92,31.07,14.05,50.08,1021.99,2023.03,2862.80,2703.25,3062.60,600.21,596.71,12.54,0000 0000 0000 0000 000000
2018-02-16 02:01:11,0.07,1.46,0.00,24.30,27.92,31.06,14.12,50.18,1021.99,2023.03,2861.25,2702.22,3061.28,600.39,596.85,12.59,0000 0000 0000 0000 000000
2018-02-16 02:06:13,0.09,1.46,0.00,24.31,27.92,31.06,13.99,50.06,1021.99,2023.03,2859.62,2701.16,3059.92,600.12,596.73,12.64,0000 0000 0000 0000 000000
2018-02-16 02:11:14,0.08,1.47,0.00,24.32,27.91,31.05,14.00,49.97,1021.99,2023.04,2857.98,2700.11,3058.60,599.92,596.45,12.69,0000 0000 0000 0000 000000
2018-02-16 02:16:15,0.08,1.47,0.00,24.33,27.90,31.05,13.95,49.93,1021.99,2023.10,2856.46,2699.18,3057.42,599.82,596.30,12.74,0000 0000 0000 0000 000000
2018-02-16 02:21:16,0.08,1.48,0.00,24.32,27.90,31.02,13.94,50.02,1021.98,2023.11,2854.83,2698.15,3056.14,600.00,596.51,12.79,0000 0000 0000 0000 000000
2018-02-16 02:26:17,0.08,1.48,0.00,24.32,27.90,31.04,14.05,49.99,1021.95,2023.10,2853.29,2697.15,3054.75,600.09,596.44,12.84,0000 0000 0000 0000 000000
2018-02-16 02:31:19,0.09,1.48,0.00,24.31,27.90,31.02,14.04,50.08,1021.84,2023.10,2851.69,2696.16,3053.54,600.14,596.61,12.89,0000 0000 0000 0000 000000
2018-02-16 02:36:20,0.08,1.49,0.00,24.30,27.88,31.02,13.98,50.03,1021.78,2023.14,2850.11,2695.18,3052.24,599.67,596.11,12.94,0000 0000 0000 0000 000000
2018-02-16 02:41:21,0.09,1.49,0.00,24.28,27.87,31.01,14.01,49.98,1021.88,2023.21,2848.55,2694.24,3051.00,599.97,596.64,12.99,0000 0000 0000 0000 000000
2018-02-16 02:46:23,0.10,1.50,0.00,24.29,27.87,31.00,13.96,50.13,1021.75,2023.26,2846.90,2693.24,3049.70,600.16,596.55,13.04,0000 0000 0000 0000 000000
2018-02-16 02:51:24,0.08,1.50,0.00,24.30,27.87,30.99,13.98,50.08,1021.61,2023.39,2845.38,2692.25,3048.43,600.01,596.32,13.09,0000 0000 0000 0000 000000
2018-02-16 02:56:25,0.11,1.51,0.00,24.31,27.87,31.00,13.96,50.14,1021.58,2023.57,2843.77,2691.25,3047.16,599.80,596.23,13.14,0000 0000 0000 0000 000000
2018-02-16 03:01:26,0.07,1.51,0.00,24.31,27.87,30.99,14.00,50.11,1021.64,2023.55,2842.20,2690.30,3045.80,600.14,596.53,13.19,0000 0000 0000 0000 000000
2018-02-16 03:06:28,0.08,1.52,0.00,24.30,27.85,30.98,14.01,50.14,1021.55,2023.51,2840.62,2689.28,3044.55,599.81,596.12,13.24,0000 0000 0000 0000 000000
2018-02-16 03:11:29,0.09,1.52,0.00,24.32,27.85,30.99,14.06,50.21,1021.53,2023.64,2839.06,2688.34,3043.36,600.22,596.48,13.29,0000 0000 0000 0000 000000
2018-02-16 03:16:31,0.10,1.53,0.00,24.34,27.85,30.98,14.01,50.27,1021.56,2023.76,2837.53,2687.35,3042.00,599.97,596.12,13.34,0000 0000 0000 0000 000000
2018-02-16 03:21:32,0.08,1.53,0.00,24.34,27.85,30.99,13.97,50.24,1021.82,2023.73,2835.92,2686.47,3040.69,600.21,596.56,13.39,0000 0000 0000 0000 000000
2018-02-16 03:26:33,0.09,1.53,0.00,24.32,27.85,30.98,14.01,50.38,1021.97,2023.80,2834.31,2685.46,3039.45,599.83,596.33,13.44,0000 0000 0000 0000 000000
2018-02-16 03:31:35,0.08,1.54,0.00,24.35,27.85,30.97,13.98,50.27,1021.98,2023.76,2832.65,2684.37,3037.94,599.93,596.40,13.49,0000 0000 0000 0000 000000
2018-02-16 03:36:36,0.10,1.54,0.00,24.34,27.85,30.97,14.05,50.19,1021.97,2023.86,2830.99,2683.40,3036.66,600.01,596.53,13.54,0000 0000 0000 0000 000000
2018-02-16 03:41:37,0.08,1.55,0.00,24.34,27.85,30.97,14.01,50.15,1021.98,2023.93,2829.46,2682.42,3035.44,600.20,596.67,13.59,0000 0000 0000 0000 000000
2018-02-16 03:46:39,0.08,1.55,0.00,24.35,27.84,30.97,13.98,50.17,1021.94,2023.95,2827.80,2681.40,3034.08,600.15,596.59,13.64,0000 0000 0000 0000 000000
2018-02-16 03:51:40,0.09,1.56,0.00,24.38,27.84,30.96,14.02,50.34,1021.90,2023.95,2826.25,2680.42,3032.70,600.05,596.43,13.69,0000 0000 0000 0000 000000
2018-02-16 03:56:41,0.08,1.56,0.00,24.37,27.83,30.97,13.92,50.34,1021.85,2023.93,2824.59,2679.37,3031.41,599.77,595.87,13.74,0000 0000 0000 0000 000000
2018-02-16 04:01:42,0.08,1.57,0.00,24.37,27.83,30.97,14.02,50.25,1021.67,2023.95,2822.95,2678.30,3030.02,600.16,596.39,13.79,0000 0000 0000 0000 000000
2018-02-16 04:06:43,0.09,1.57,0.00,24.38,27.83,30.97,13.96,50.27,1021.58,2023.94,2821.23,2677.24,3028.59,600.05,596.25,13.84,0000 0000 0000 0000 000000
2018-02-16 04:11:45,0.08,1.58,0.00,24.37,27.83,30.97,13.99,50.29,1021.58,2023.92,2819.50,2676.10,3027.14,599.96,596.16,13.89,0000 0000 0000 0000 000000
2018-02-16 04:16:46,0.10,1.58,0.00,24.37,27.83,30.97,13.95,50.24,1021.57,2023.92,2817.79,2675.04,3025.71,599.79,596.07,13.94,0000 0000 0000 0000 000000
2018-02-16 04:21:47,0.07,1.59,0.00,24.37,27.83,30.97,13.82,50.26,1021.55,2023.88,2816.27,2674.00,3024.43,599.65,595.86,13.99,0000 0000 0000 0000 000000
2018-02-16 04:26:48,0.09,1.59,0.00,24.37,27.84,30.97,13.97,50.27,1021.53,2023.94,2814.76,2673.02,3023.06,600.02,596.17,14.04,0000 0000 0000 0000 000000
2018-02-16 04:31:49,0.08,1.59,0.00,24.37,27.84,30.97,14.02,50.27,1021.51,2023.91,2813.16,2671.99,3021.70,600.11,596.26,14.09,0000 0000 0000 0000 000000
2018-02-16 04:36:51,0.09,1.60,0.00,24.36,27.84,30.97,14.00,50.23,1021.52,2023.93,2811.51,2670.93,3020.38,600.02,596.08,14.14,0000 0000 0000 0000 000000
2018-02-16 04:41:51,0.09,1.60,0.00,24.35,27.84,30.99,14.01,50.26,1021.54,2023.90,2809.81,2669.82,3018.94,600.06,596.35,14.19,0000 0000 0000 0000 000000
2018-02-16 04:46:53,0.09,1.61,0.00,24.34,27.84,30.98,13.98,50.10,1021.59,2023.89,2808.17,2668.77,3017.62,600.30,596.51,14.24,0000 0000 0000 0000 000000
2018-02-16 04:51:54,0.09,1.61,0.00,24.35,27.84,30.99,14.01,50.19,1021.63,2023.81,2806.48,2667.60,3016.16,599.88,596.15,14.29,0000 0000 0000 0000 000000
2018-02-16 04:56:56,0.10,1.62,0.00,24.34,27.84,30.98,13.93,50.18,1021.82,2023.89,2804.82,2666.60,3014.85,599.52,596.06,14.34,0000 0000 0000 0000 000000
2018-02-16 05:01:57,0.08,1.62,0.00,24.35,27.84,30.99,14.05,50.22,1021.78,2023.87,2803.30,2665.60,3013.61,600.18,596.57,14.39,0000 0000 0000 0000 000000
2018-02-16 05:06:59,0.08,1.63,0.00,24.36,27.84,30.99,13.99,50.23,1021.55,2023.92,2801.74,2664.66,3012.38,600.09,596.29,14.44,0000 0000 0000 0000 000000
2018-02-16 05:12:00,0.08,1.63,0.00,24.35,27.85,31.00,14.03,50.10,1021.52,2023.95,2800.31,2663.76,3011.17,600.20,596.35,14.49,0000 0000 0000 0000 000000
2018-02-16 05:17:01,0.08,1.64,0.00,24.34,27.85,31.00,14.03,50.23,1021.51,2023.97,2798.82,2662.87,3009.97,599.84,596.07,14.54,0000 0000 0000 0000 000000
2018-02-16 05:22:03,0.09,1.64,0.00,24.35,27.85,30.97,13.98,50.17,1021.52,2023.96,2797.30,2661.85,3008.71,600.14,596.33,14.59,0000 0000 0000 0000 000000
2018-02-16 05:27:04,0.07,1.64,0.00,24.36,27.85,30.99,14.03,50.33,1021.51,2023.98,2795.83,2660.94,3007.65,600.00,596.18,14.64,0000 0000 0000 0000 000000
2018-02-16 05:32:06,0.08,1.65,0.00,24.36,27.85,30.99,14.01,50.32,1021.51,2023.97,2794.38,2660.00,3006.49,600.36,596.52,14.70,0000 0000 0000 0000 000000
2018-02-16 05:37:07,0.08,1.65,0.00,24.37,27.85,30.98,13.99,50.29,1021.51,2023.96,2792.81,2659.05,3005.27,599.91,596.07,14.75,0000 0000 0000 0000 000000
2018-02-16 05:42:08,0.08,1.66,0.00,24.37,27.85,30.99,13.99,50.32,1021.50,2023.96,2791.39,2658.06,3003.98,600.13,596.26,14.80,0000 0000 0000 0000 000000
2018-02-16 05:47:09,0.09,1.66,0.00,24.38,27.85,30.99,14.01,50.47,1021.50,2023.97,2789.83,2657.11,3002.71,600.26,596.46,14.85,0000 0000 0000 0000 000000
2018-02-16 05:52:11,0.08,1.67,0.00,24.37,27.85,30.99,13.94,50.30,1021.51,2023.96,2788.29,2656.10,3001.44,599.70,595.86,14.90,0000 0000 0000 0000 000000
2018-02-16 05:57:12,0.08,1.67,0.00,24.37,27.85,30.99,13.96,50.24,1021.50,2023.96,2786.70,2655.07,3000.16,599.89,596.02,14.95,0000 0000 0000 0000 000000
2018-02-16 06:02:14,0.08,1.67,0.00,24.37,27.85,30.99,13.93,50.21,1021.51,2023.96,2785.18,2654.05,2998.88,599.98,596.12,15.00,0000 0000 0000 0000 000000
2018-02-16 06:07:15,0.08,1.68,0.00,24.37,27.85,31.01,13.95,50.24,1021.50,2023.96,2783.71,2653.06,2997.58,599.93,596.08,15.05,0000 0000 0000 0000 000000
2018-02-16 06:12:17,0.08,1.68,0.00,24.37,27.85,30.99,14.00,50.29,1021.51,2023.94,2782.02,2652.06,2996.33,599.89,596.04,15.10,0000 0000 0000 0000 000000
2018-02-16 06:17:18,0.08,1.69,0.00,24.38,27.85,31.00,13.97,50.30,1021.52,2023.90,2780.47,2651.01,2994.94,600.03,596.15,15.15,0000 0000 0000 0000 000000
2018-02-16 06:22:19,0.09,1.69,0.00,24.39,27.86,31.01,13.90,50.36,1021.52,2023.85,2778.80,2649.96,2993.58,599.78,595.89,15.20,0000 0000 0000 0000 000000
2018-02-16 06:27:20,0.08,1.70,0.00,24.41,27.87,31.02,13.99,50.38,1021.52,2023.87,2777.27,2648.94,2992.36,599.93,596.00,15.25,0000 0000 0000 0000 000000
2018-02-16 06:32:21,0.06,1.70,0.00,24.41,27.87,31.02,13.92,50.38,1021.55,2023.60,2775.64,2647.82,2990.89,599.80,595.84,15.30,0000 0000 0000 0000 000000
2018-02-16 06:37:22,0.12,1.70,0.00,24.40,27.87,31.02,14.01,50.25,1021.53,2023.56,2774.00,2646.76,2989.51,600.01,595.95,15.35,0000 0000 0000 0000 000000
2018-02-16 06:42:23,0.08,1.71,0.00,24.41,27.87,31.02,13.97,50.29,1021.56,2023.69,2772.43,2645.73,2988.25,599.86,595.94,15.40,0000 0000 0000 0000 000000
2018-02-16 06:47:24,0.10,1.71,0.00,24.41,27.87,31.02,14.02,50.32,1021.57,2023.70,2770.88,2644.75,2986.93,599.93,596.02,15.45,0000 0000 0000 0000 000000
2018-02-16 06:52:26,0.07,1.72,0.00,24.40,27.87,31.03,13.98,50.30,1021.63,2023.68,2769.38,2643.73,2985.66,600.10,596.26,15.50,0000 0000 0000 0000 000000
2018-02-16 06:57:27,0.09,1.72,0.00,24.40,27.87,31.03,14.02,50.14,1021.79,2023.57,2767.68,2642.67,2984.38,600.09,596.40,15.55,0000 0000 0000 0000 000000
2018-02-16 07:02:29,0.07,1.73,0.00,24.41,27.87,31.04,14.03,50.20,1021.90,2023.60,2766.05,2641.66,2983.14,600.30,596.57,15.60,0000 0000 0000 0000 000000
2018-02-16 07:07:30,0.10,1.73,0.00,24.40,27.89,31.02,14.00,50.23,1021.90,2023.56,2764.44,2640.63,2981.82,600.05,596.39,15.65,0000 0000 0000 0000 000000
2018-02-16 07:12:31,0.09,1.74,0.00,24.41,27.90,31.02,14.02,50.30,1021.78,2023.65,2762.89,2639.66,2980.60,600.11,596.29,15.70,0000 0000 0000 0000 000000
2018-02-16 07:17:32,0.05,1.74,0.00,24.42,27.90,31.05,14.00,50.21,1021.78,2023.45,2761.43,2638.64,2979.38,600.05,596.28,15.75,0000 0000 0000 0000 000000
2018-02-16 07:22:33,0.11,1.74,0.00,24.43,27.90,31.05,14.03,50.24,1021.81,2023.52,2759.77,2637.60,2978.05,600.25,596.45,15.80,0000 0000 0000 0000 000000
2018-02-16 07:27:35,0.06,1.75,0.00,24.45,27.90,31.06,13.98,50.19,1021.85,2023.39,2758.42,2636.61,2976.72,600.02,596.32,15.85,0000 0000 0000 0000 000000
2018-02-16 07:32:36,0.07,1.75,0.00,24.45,27.90,31.07,14.01,50.21,1021.94,2023.28,2756.88,2635.56,2975.47,600.29,596.32,15.90,0000 0000 0000 0000 000000
2018-02-16 07:37:37,0.08,1.76,0.00,24.43,27.92,31.09,13.97,50.34,1021.97,2023.13,2755.27,2634.45,2973.88,599.79,596.09,15.95,0000 0000 0000 0000 000000
2018-02-16 07:42:39,0.08,1.76,0.00,24.44,27.92,31.10,14.00,50.31,1021.99,2023.05,2753.59,2633.22,2972.54,599.81,596.13,16.00,0000 0000 0000 0000 000000
2018-02-16 07:47:40,0.08,1.77,0.00,24.46,27.92,31.09,14.01,50.38,1021.99,2023.02,2751.96,2632.14,2971.15,600.08,596.31,16.05,0000 0000 0000 0000 000000
2018-02-16 07:52:41,0.09,1.77,0.00,24.47,27.92,31.09,13.94,50.38,1021.99,2023.01,2750.47,2631.01,2969.67,600.15,596.29,16.10,0000 0000 0000 0000 000000
2018-02-16 07:57:42,0.09,1.78,0.00,24.48,27.94,31.09,14.03,50.44,1021.99,2023.00,2748.87,2629.92,2968.42,600.01,596.17,16.15,0000 0000 0000 0000 000000
2018-02-16 08:02:44,0.08,1.78,0.00,24.47,27.95,31.10,13.98,50.43,1021.99,2023.01,2747.40,2628.95,2967.16,600.42,596.64,16.20,0000 0000 0000 0000 000000
2018-02-16 08:07:45,0.10,1.79,0.00,24.49,27.95,31.11,13.99,50.38,1021.99,2023.01,2745.79,2627.88,2965.82,599.88,596.08,16.25,0000 0000 0000 0000 000000
2018-02-16 08:12:46,0.09,1.79,0.00,24.49,27.95,31.12,13.99,50.37,1021.99,2023.01,2744.16,2626.80,2964.44,600.16,596.34,16.30,0000 0000 0000 0000 000000
2018-02-16 08:17:48,0.09,1.79,0.00,24.49,27.95,31.13,14.00,50.37,1021.99,2023.00,2742.49,2625.72,2963.10,600.19,596.32,16.35,0000 0000 0000 0000 000000
2018-02-16 08:22:49,0.09,1.80,0.00,24.48,27.97,31.13,13.97,50.38,1022.01,2023.00,2740.89,2624.68,2961.85,600.01,596.28,16.40,0000 0000 0000 0000 000000
2018-02-16 08:27:50,0.08,1.80,0.00,24.49,27.97,31.13,13.96,50.43,1022.01,2023.00,2739.42,2623.74,2960.59,599.88,596.13,16.45,0000 0000 0000 0000 000000
2018-02-16 08:32:51,0.08,1.81,0.00,24.47,27.97,31.14,13.94,50.41,1022.06,2023.00,2737.78,2622.84,2959.35,599.67,595.92,16.50,0000 0000 0000 0000 000000
2018-02-16 08:37:53,0.08,1.81,0.00,24.47,27.97,31.16,14.00,50.30,1022.16,2023.00,2736.32,2621.89,2958.05,600.15,596.43,16.55,0000 0000 0000 0000 000000
2018-02-16 08:42:54,0.10,1.82,0.00,24.50,27.99,31.14,14.02,50.47,1022.14,2023.00,2734.67,2620.84,2956.68,599.83,596.08,16.60,0000 0000 0000 0000 000000
2018-02-16 08:47:55,0.09,1.82,0.00,24.51,28.00,31.17,14.01,50.51,1022.20,2023.00,2733.10,2619.78,2955.51,599.93,596.21,16.65,0000 0000 0000 0000 000000
2018-02-16 08:52:57,0.09,1.83,0.00,24.50,28.00,31.18,14.00,50.52,1022.13,2023.00,2731.55,2618.71,2954.09,599.94,596.02,16.70,0000 0000 0000 0000 000000
2018-02-16 08:57:58,0.09,1.83,0.00,24.50,28.00,31.18,14.03,50.48,1022.09,2023.00,2729.91,2617.66,2952.75,600.21,596.43,16.75,0000 0000 0000 0000 000000
2018-02-16 09:03:00,0.07,1.84,0.00,24.52,28.02,31.19,13.97,50.45,1022.05,2023.00,2728.50,2616.74,2951.54,599.88,596.00,16.80,0000 0000 0000 0000 000000
2018-02-16 09:08:01,0.09,1.84,0.00,24.53,28.02,31.19,13.99,50.43,1022.08,2023.00,2726.94,2615.70,2950.25,599.86,595.99,16.85,0000 0000 0000 0000 000000
2018-02-16 09:13:02,0.09,1.85,0.00,24.52,28.02,31.20,14.03,50.43,1022.07,2022.99,2725.40,2614.58,2948.87,600.00,596.10,16.90,0000 0000 0000 0000 000000
2018-02-16 09:18:04,0.08,1.85,0.00,24.54,28.04,31.21,14.07,50.54,1022.18,2022.98,2723.84,2613.56,2947.59,600.31,596.50,16.95,0000 0000 0000 0000 000000
2018-02-16 09:23:05,0.08,1.85,0.00,24.54,28.05,31.22,14.01,50.48,1022.16,2022.97,2722.42,2612.60,2946.39,600.05,596.31,17.00,0000 0000 0000 0000 000000
2018-02-16 09:28:06,0.08,1.86,0.00,24.56,28.05,31.23,13.95,50.28,1022.07,2022.97,2720.88,2611.69,2945.12,599.91,596.01,17.05,0000 0000 0000 0000 000000
2018-02-16 09:33:08,0.09,1.86,0.00,24.58,28.05,31.22,13.97,50.55,1022.06,2022.96,2719.32,2610.54,2943.83,599.94,596.01,17.10,0000 0000 0000 0000 000000
2018-02-16 09:38:09,0.09,1.87,0.00,24.58,28.07,31.25,14.01,50.51,1022.01,2022.93,2717.78,2609.54,2942.55,600.15,596.17,17.15,0000 0000 0000 0000 000000
2018-02-16 09:43:10,0.08,1.87,0.00,24.59,28.07,31.26,13.95,50.56,1022.09,2022.92,2716.39,2608.55,2941.39,599.94,595.87,17.20,0000 0000 0000 0000 000000
2018-02-16 09:48:11,0.07,1.88,0.00,24.59,28.07,31.25,14.00,50.40,1022.11,2022.80,2714.89,2607.59,2940.10,600.14,596.09,17.25,0000 0000 0000 0000 000000
2018-02-16 09:53:13,0.08,1.88,0.00,24.60,28.09,31.26,14.02,50.40,1022.08,2022.74,2713.46,2606.59,2938.81,600.30,596.29,17.30,0000 0000 0000 0000 000000
2018-02-16 09:58:14,0.08,1.88,0.00,24.60,28.10,31.27,13.98,50.53,1022.05,2022.81,2712.06,2605.72,2937.64,599.95,595.99,17.35,0000 0000 0000 0000 000000
2018-02-16 10:03:15,0.07,1.89,0.00,24.60,28.10,31.27,14.07,50.51,1022.03,2022.71,2710.65,2604.76,2936.49,600.19,596.19,17.41,0000 0000 0000 0000 000000
2018-02-16 10:08:17,0.06,1.89,0.00,24.61,28.10,31.26,14.02,50.40,1022.09,2022.57,2709.26,2603.76,2935.31,600.26,596.28,17.46,0000 0000 0000 0000 000000
2018-02-16 10:13:18,0.08,1.90,0.00,24.62,28.11,31.27,13.98,50.34,1022.14,2022.44,2707.73,2602.75,2933.97,599.87,595.88,17.51,0000 0000 0000 0000 000000
2018-02-16 10:18:20,0.07,1.90,0.00,24.62,28.12,31.29,14.06,50.33,1022.10,2022.31,2706.28,2601.81,2932.76,600.29,596.21,17.56,0000 0000 0000 0000 000000
2018-02-16 10:23:21,0.08,1.90,0.00,24.62,28.12,31.29,13.99,50.34,1022.13,2022.20,2704.75,2600.86,2931.55,599.93,596.06,17.61,0000 0000 0000 0000 000000
2018-02-16 10:28:23,0.07,1.91,0.00,24.60,28.12,31.29,13.94,50.45,1022.05,2022.09,2703.32,2599.81,2930.31,600.06,596.16,17.66,0000 0000 0000 0000 000000
2018-02-16 10:33:24,0.08,1.91,0.00,24.60,28.13,31.30,14.04,50.47,1022.14,2022.02,2701.78,2598.81,2928.98,600.12,596.18,17.71,0000 0000 0000 0000 000000
2018-02-16 10:38:25,0.09,1.92,0.00,24.61,28.15,31.32,13.98,50.45,1022.21,2022.02,2700.36,2597.80,2927.75,600.03,596.07,17.76,0000 0000 0000 0000 000000
2018-02-16 10:43:27,0.08,1.92,0.00,24.62,28.15,31.31,14.07,50.48,1022.19,2022.03,2698.85,2596.85,2926.51,600.02,596.10,17.81,0000 0000 0000 0000 000000
2018-02-16 10:48:28,0.08,1.93,0.00,24.62,28.15,31.31,14.01,50.58,1022.30,2022.00,2697.36,2595.84,2925.24,600.29,596.39,17.86,0000 0000 0000 0000 000000
2018-02-16 10:53:29,0.08,1.93,0.00,24.63,28.15,31.35,14.07,50.48,1022.29,2022.02,2695.84,2594.90,2924.08,600.33,596.42,17.91,0000 0000 0000 0000 000000
2018-02-16 10:58:30,0.09,1.93,0.00,24.63,28.17,31.35,13.94,50.48,1022.23,2022.01,2694.39,2593.89,2922.82,599.98,596.26,17.96,0000 0000 0000 0000 000000
2018-02-16 11:03:32,0.09,1.94,0.00,24.64,28.17,31.36,13.95,50.38,1022.36,2022.00,2692.78,2592.90,2921.54,599.83,595.93,18.01,0000 0000 0000 0000 000000
2018-02-16 11:08:33,0.07,1.94,0.00,24.66,28.17,31.35,14.05,50.45,1022.35,2022.00,2691.34,2591.95,2920.33,599.97,596.11,18.06,0000 0000 0000 0000 000000
2018-02-16 11:13:34,0.08,1.95,0.00,24.67,28.17,31.35,13.96,50.45,1022.31,2022.00,2689.83,2590.99,2919.18,600.23,596.30,18.11,0000 0000 0000 0000 000000
2018-02-16 11:18:36,0.09,1.95,0.00,24.67,28.18,31.37,14.02,50.43,1022.21,2022.00,2688.38,2590.01,2917.87,600.05,596.14,18.16,0000 0000 0000 0000 000000
2018-02-16 11:23:37,0.09,1.96,0.00,24.66,28.20,31.38,13.99,50.51,1022.22,2022.00,2686.88,2589.01,2916.59,600.24,596.11,18.21,0000 0000 0000 0000 000000
2018-02-16 11:28:38,0.09,1.96,0.00,24.67,28.20,31.37,13.92,50.55,1022.09,2022.00,2685.40,2587.97,2915.33,600.04,595.91,18.26,0000 0000 0000 0000 000000
2018-02-16 11:33:40,0.08,1.97,0.00,24.69,28.20,31.37,13.96,50.52,1022.12,2022.00,2683.91,2587.00,2914.03,600.10,595.93,18.31,0000 0000 0000 0000 000000
2018-02-16 11:38:41,0.09,1.97,0.00,24.70,28.20,31.38,13.91,50.46,1022.21,2022.00,2682.43,2586.02,2912.78,599.86,595.94,18.36,0000 0000 0000 0000 000000
2018-02-16 11:43:43,0.09,1.98,0.00,24.70,28.21,31.39,14.02,50.57,1022.10,2021.99,2680.84,2585.01,2911.60,600.26,596.10,18.41,0000 0000 0000 0000 000000
2018-02-16 11:48:44,0.08,1.98,0.00,24.70,28.22,31.38,14.03,50.62,1022.01,2021.99,2679.42,2584.04,2910.24,600.28,596.06,18.46,0000 0000 0000 0000 000000
2018-02-16 11:53:45,0.09,1.98,0.00,24.70,28.22,31.39,13.97,50.57,1022.00,2021.99,2677.86,2583.08,2909.02,599.96,595.76,18.51,0000 0000 0000 0000 000000
2018-02-16 11:58:47,0.09,1.99,0.00,24.70,28.22,31.38,14.01,50.52,1022.00,2021.99,2676.42,2582.13,2907.81,600.10,595.81,18.56,0000 0000 0000 0000 000000
2018-02-16 12:03:48,0.08,1.99,0.00,24.69,28.22,31.40,14.03,50.57,1022.01,2021.99,2675.01,2581.28,2906.66,600.24,596.01,18.61,0000 0000 0000 0000 000000
2018-02-16 12:08:49,0.09,2.00,0.00,24.70,28.23,31.39,13.92,50.61,1022.00,2021.98,2673.52,2580.30,2905.44,599.86,595.63,18.66,0000 0000 0000 0000 000000
2018-02-16 12:13:50,0.08,2.00,0.00,24.73,28.25,31.40,13.99,50.65,1022.00,2021.96,2672.03,2579.28,2904.22,600.14,595.89,18.71,0000 0000 0000 0000 000000
2018-02-16 12:18:52,0.09,2.01,0.00,24.74,28.25,31.41,13.92,50.66,1022.00,2021.97,2670.67,2578.41,2903.05,599.86,595.54,18.76,0000 0000 0000 0000 000000
2018-02-16 12:23:53,0.08,2.01,0.00,24.72,28.25,31.41,13.94,50.71,1022.00,2021.96,2669.28,2577.47,2901.82,599.64,595.37,18.81,0000 0000 0000 0000 000000
2018-02-16 12:28:54,0.09,2.01,0.00,24.73,28.25,31.42,13.92,50.63,1021.99,2021.98,2667.80,2576.59,2900.64,599.91,595.62,18.86,0000 0000 0000 0000 000000
2018-02-16 12:33:56,0.08,2.02,0.00,24.74,28.25,31.42,13.96,50.73,1021.99,2021.95,2666.39,2575.61,2899.44,600.05,595.78,18.91,0000 0000 0000 0000 000000
2018-02-16 12:38:57,0.08,2.02,0.00,24.74,28.26,31.41,13.95,50.60,1022.01,2021.95,2664.88,2574.67,2898.20,599.86,595.59,18.96,0000 0000 0000 0000 000000
2018-02-16 12:43:58,0.07,2.03,0.00,24.77,28.27,31.42,13.94,50.45,1022.01,2021.92,2663.50,2573.75,2897.03,599.97,595.62,19.01,0000 0000 0000 0000 000000
2018-02-16 12:48:59,0.07,2.03,0.00,24.77,28.27,31.41,13.99,50.56,1022.00,2021.77,2662.05,2572.81,2895.82,600.08,595.71,19.06,0000 0000 0000 0000 000000
2018-02-16 12:54:01,0.06,2.03,0.00,24.77,28.27,31.44,14.00,50.62,1022.00,2021.53,2660.63,2571.91,2894.63,600.06,595.80,19.11,0000 0000 0000 0000 000000